Durant, OK

12:50 AM CST on December 12, 2019 (GMT -0600)
Eaker

Weather History for KDUA - October, 2019

Change the Weather History Date:

Thursday, October 10, 2019

  Actual Average (KMLC) Record (KMLC)
Temperature  
Mean Temperature 71 °F -  
Max Temperature 87 °F 75 °F 95 °F (1963)
Min Temperature 55 °F 50 °F 30 °F (2000)
Cooling Degree Days 6    
Growing Degree Days 21 (Base 50)    
Moisture  
Dew Point 65 °F    
Average Humidity 72    
Maximum Humidity 88    
Minimum Humidity 49    
Precipitation  
Precipitation 0.00 in - - ()
Sea Level Pressure  
Sea Level Pressure 29.85 in    
Wind  
Wind Speed 13 mph (South)    
Max Wind Speed 24 mph    
Max Gust Speed 32 mph    
Visibility 10 miles    
Events Rain    
Averages and records for this station are not official NWS values.
T = Trace of Precipitation, MM = Missing Value Source: NWS Daily Summary

Daily Weather History Graph

Daily Weather History Graph

Search for Another Location

Airport or City:

Astronomy

Oct. 10, 2019 Rise Set
Actual Time 7:26 AM CDT 6:58 PM CDT
Civil Twilight 7:01 AM CDT 7:23 PM CDT
Nautical Twilight 6:32 AM CDT 7:52 PM CDT
Astronomical Twilight 6:03 AM CDT 8:20 PM CDT
Moon 5:48 PM CDT (10/10) 4:24 AM CDT (10/10)
Length of Visible Light 12h 21m
Length of Day
11h 31m
Waxing Gibbous, 91% of the Moon is Illuminated
Oct 10
Waxing Gibbous
Oct 13
Full
Oct 21
Last Quarter
Oct 27
New
Nov 4
First Quarter

Hourly Weather History & Observations

Time (CDT) Temp. Heat Index Dew Point Humidity Pressure Visibility Wind Dir Wind Speed Gust Speed Precip Events Conditions
12:16 AM 73.4 °F - 62.6 °F 69% 29.84 in 10.0 mi SE 9.2 mph - N/A   Clear
1:15 AM 71.6 °F - 62.6 °F 73% 29.84 in 10.0 mi SE 6.9 mph - N/A   Clear
2:37 AM 71.6 °F - 62.6 °F 73% 29.84 in 10.0 mi SE 6.9 mph - N/A   Mostly Cloudy
2:55 AM 71.6 °F - 64.4 °F 78% 29.84 in 10.0 mi SE 8.1 mph - N/A   Overcast
3:15 AM 71.6 °F - 64.4 °F 78% 29.84 in 10.0 mi SSE 8.1 mph - N/A   Overcast
3:37 AM 73.4 °F - 66.2 °F 78% 29.84 in 10.0 mi SSE 8.1 mph - N/A   Overcast
3:55 AM 73.4 °F - 66.2 °F 78% 29.84 in 10.0 mi SSE 8.1 mph - N/A   Overcast
4:35 AM 75.2 °F - 66.2 °F 73% 29.85 in 10.0 mi SSE 8.1 mph - N/A   Overcast
4:57 AM 75.2 °F - 68.0 °F 78% 29.85 in 10.0 mi South 11.5 mph - N/A   Overcast
5:36 AM 75.2 °F - 69.8 °F 83% 29.85 in 10.0 mi South 13.8 mph - N/A   Overcast
6:15 AM 75.2 °F - 69.8 °F 83% 29.85 in 10.0 mi South 17.3 mph 23.0 mph N/A   Overcast
6:35 AM 77.0 °F - 69.8 °F 78% 29.85 in 10.0 mi South 20.7 mph 25.3 mph N/A   Overcast
6:56 AM 75.2 °F - 69.8 °F 83% 29.85 in 7.0 mi South 17.3 mph - N/A Rain Light Rain
7:17 AM 75.2 °F - 69.8 °F 83% 29.85 in 7.0 mi SSE 16.1 mph 21.9 mph N/A Rain Light Rain
7:36 AM 73.4 °F - 69.8 °F 88% 29.85 in 10.0 mi South 15.0 mph - N/A   Unknown
7:55 AM 73.4 °F - 69.8 °F 88% 29.85 in 10.0 mi South 16.1 mph - N/A   Mostly Cloudy
8:55 AM 77.0 °F - 69.8 °F 78% 29.86 in 10.0 mi South 16.1 mph 26.5 mph N/A   Overcast
9:15 AM 77.0 °F - 71.6 °F 83% 29.86 in 10.0 mi South 18.4 mph 24.2 mph N/A   Overcast
9:36 AM 77.0 °F - 71.6 °F 83% 29.87 in 10.0 mi South 15.0 mph 21.9 mph N/A   Overcast
10:36 AM 78.8 °F - 69.8 °F 74% 29.86 in 10.0 mi South 16.1 mph 29.9 mph N/A   Mostly Cloudy
11:17 AM 80.6 °F 83.9 °F 69.8 °F 70% 29.86 in 10.0 mi South 23.0 mph 32.2 mph N/A   Scattered Clouds
11:35 AM 82.4 °F 86.3 °F 69.8 °F 66% 29.85 in 10.0 mi South 24.2 mph 32.2 mph N/A   Mostly Cloudy
12:15 PM 82.4 °F 86.3 °F 69.8 °F 66% 29.85 in 10.0 mi SSW 19.6 mph 25.3 mph N/A   Overcast
12:36 PM 84.2 °F 88.4 °F 69.8 °F 62% 29.85 in 10.0 mi SSW 21.9 mph 32.2 mph N/A   Overcast
12:57 PM 82.4 °F 86.3 °F 69.8 °F 66% 29.84 in 10.0 mi SSW 18.4 mph 27.6 mph N/A   Overcast
1:35 PM 84.2 °F 88.4 °F 69.8 °F 62% 29.82 in 10.0 mi SSW 15.0 mph 24.2 mph N/A   Overcast
1:57 PM 86.0 °F 90.4 °F 69.8 °F 58% 29.81 in 10.0 mi SSW 16.1 mph 21.9 mph N/A   Overcast
2:56 PM 86.0 °F 89.4 °F 68.0 °F 55% 29.78 in 10.0 mi SSW 15.0 mph - N/A   Overcast
3:17 PM 86.0 °F 89.4 °F 68.0 °F 55% 29.78 in 10.0 mi SW 12.7 mph 18.4 mph N/A   Overcast
3:35 PM 86.0 °F 89.4 °F 68.0 °F 55% 29.78 in 10.0 mi SSW 12.7 mph - N/A   Overcast
4:15 PM 87.8 °F 91.4 °F 68.0 °F 52% 29.76 in 10.0 mi SSW 13.8 mph 17.3 mph N/A   Overcast
5:35 PM 87.8 °F 90.4 °F 66.2 °F 49% 29.76 in 10.0 mi SSW 8.1 mph - N/A   Overcast
5:55 PM 87.8 °F 90.4 °F 66.2 °F 49% 29.76 in 10.0 mi SSW 6.9 mph - N/A   Overcast
6:15 PM 86.0 °F 88.2 °F 66.2 °F 51% 29.78 in 10.0 mi NNW 11.5 mph 19.6 mph N/A   Overcast
7:35 PM 62.6 °F - 59.0 °F 88% 29.84 in 10.0 mi NNW 11.5 mph 20.7 mph N/A   Mostly Cloudy
8:55 PM 60.8 °F - 53.6 °F 77% 29.89 in 10.0 mi North 15.0 mph 24.2 mph N/A Rain Light Rain
9:35 PM 60.8 °F - 53.6 °F 77% 29.92 in 10.0 mi NNW 17.3 mph 27.6 mph N/A   Overcast
9:57 PM 60.8 °F - 53.6 °F 77% 29.93 in 10.0 mi NNW 20.7 mph 28.8 mph N/A   Overcast
10:16 PM 59.0 °F - 51.8 °F 77% 29.95 in 10.0 mi NNW 21.9 mph 27.6 mph N/A   Overcast
11:17 PM 55.4 °F - 48.2 °F 77% 29.99 in 10.0 mi NNW 13.8 mph 25.3 mph N/A Rain Light Rain
11:35 PM 55.4 °F - 48.2 °F 77% 30.00 in 10.0 mi NNW 17.3 mph 29.9 mph N/A   Overcast